958  
ASUS43 KMKX 050421  
RWRWI  
 
WISCONSIN REGIONAL WEATHER ROUNDUP  
NATIONAL WEATHER SERVICE MILWAUKEE/SULLIVAN WI  
1100 PM CDT SAT APR 04 2020  
 
NOTE: "FAIR" INDICATES FEW OR NO CLOUDS BELOW 12,000 FEET WITH NO  
SIGNIFICANT WEATHER AND/OR S TO VISIBILITY
.  
 
WIZ001-002-006>008-014>016-023>028-050500-  
NORTHWEST WISCONSIN  
 
CITY SKY/WX TMP DP RH WIND PRES REMARKS
 
SUPERIOR ARPT FAIR 27 21 80 CALM 30.18S  
ASHLAND FAIR 24 22 91 S3 30.19R  
HAYWARD FAIR 25 20 81 CALM 30.18R  
SIREN FAIR 27 20 76 CALM 30.17F  
CUMBERLAND FAIR 28 23 80 CALM 30.17S  
RICE LAKE FAIR 28 25 91 CALM 30.18F  
CHETEK FAIR 27 25 90 CALM 30.18F  
LADYSMITH FAIR 29 26 88 W5 30.19R WCI 24  
EAU CLAIRE FAIR 29 22 75 CALM 30.16F  
MENOMONIE FAIR 27 23 84 CALM 30.18S  
NEW RICHMOND FAIR 29 24 82 CALM 30.17S  
OSCEOLA FAIR 28 24 83 CALM 30.21R  

 
 
WIZ003>005-009-010-017-018-050500-  
NORTH CENTRAL WISCONSIN  
 
CITY SKY/WX TMP DP RH WIND PRES REMARKS
 
MANITOWISH WTR FAIR 22 17 81 CALM 30.14S  
ARBOR VITAE FAIR 25 19 77 CALM 30.14S  
WOODRUFF FAIR 25 19 77 CALM 30.14S  
RHINELANDER FAIR 25 14 63 N3 30.14R  
EAGLE RIVER FAIR 23 18 82 CALM 30.14R  
LAND O LAKES FAIR 20 17 89 CALM 30.16S  
PHILLIPS FAIR 23 20 90 CALM 30.14S  
TOMAHAWK FAIR 23 21 92 CALM 30.15R  
MEDFORD FAIR 28 24 85 CALM 30.14S  
MERRILL FAIR 27 22 84 CALM 30.15R  

 
 
WIZ029-030-035-036-043>047-050500-  
CENTRAL WISCONSIN  
 
CITY SKY/WX TMP DP RH WIND PRES REMARKS
 
WAUSAU FAIR 33 22 63 NW5 30.13R WCI 29  
MOSINEE FAIR 32 23 69 CALM 30.15R  
MARSHFIELD FAIR 32 26 78 NW3 30.13S  
STEVENS POINT FAIR 27 22 82 CALM 30.15R  
WAUPACA FAIR 33 26 75 MISG 30.15R  
WAUTOMA FAIR 30 27 88 CALM 30.15S  
WISC RAPIDS FAIR 30 24 78 CALM 30.15S  
CAMP DOUGLAS FAIR 24 24 100 W5 30.15S WCI 18  

 
 
WIZ011>013-019>022-031-037>040-048>050-050500-  
NORTHEAST WISCONSIN  
 
CITY SKY/WX TMP DP RH WIND PRES REMARKS
 
ANTIGO FAIR 28 22 79 CALM 30.13S  
SHAWANO FAIR 36 33 90 E5 30.15S WCI 32  
OCONTO FAIR 31 30 96 CALM 30.17S  
STURGEON BAY FAIR 29 27 92 CALM 30.18R  
GREEN BAY CLOUDY 35 32 88 E5 30.16S WCI 31  
MANITOWOC CLOUDY 34 32 92 SE6 30.17S WCI 29  
APPLETON FAIR 34 30 86 SE6 30.12S WCI 29  
CLINTONVILLE FAIR 37 23 56 CALM 30.14S  
OSHKOSH FAIR 38 27 64 NW6 30.13S WCI 33  

 
 
WIZ032>034-041-042-053>061-050500-  
SOUTHWEST WISCONSIN  
 
CITY SKY/WX TMP DP RH WIND PRES REMARKS
 
LA CROSSE FAIR 34 26 72 CALM 30.17S  
SPARTA FAIR 27 24 89 CALM 30.18S  
VIROQUA FAIR 34 25 71 CALM 30.14S  
BOSCOBEL FAIR 32 27 81 CALM 30.16S  
PRAIRIE DU CHI FAIR 32 26 77 CALM 30.16R  
PLATTEVILLE FAIR 34 26 73 N5 30.14S WCI 30  

 
 
WIZ056-057-062-063-064-067-068-050500-  
SOUTH CENTRAL WISCONSIN  
 
CITY SKY/WX TMP DP RH WIND PRES REMARKS
 
REEDSBURG FAIR 33 27 79 CALM 30.15S  
BARABOO/DELLS FAIR 30 27 87 CALM 30.14S  
LONE ROCK FAIR 36 28 73 CALM 30.15S  
MINERAL POINT FAIR 39 23 52 N6 30.13S WCI 35  
MADISON FAIR 35 26 69 N5 30.13F WCI 31  
MIDDLETON FAIR 34 29 80 CALM 30.14S  
WATERTOWN FAIR 35 34 99 CALM 30.14S  
MONROE FAIR 40 21 46 N6 30.12S  
JANESVILLE FAIR 39 32 75 E6 30.13S WCI 35  

 
 
WIZ051-052-058>065-066-070>072-050500-  
SOUTHEAST WISCONSIN  
 
CITY SKY/WX TMP DP RH WIND PRES REMARKS
 
MILWAUKEE MOCLDY 36 32 85 CALM 30.15F  
WAUKESHA FAIR 30 28 93 CALM 30.15F  
MILWAUKEE/TIMM FAIR 32 30 93 CALM 30.16S  
RACINE MOCLDY 36 33 89 E3 30.17S  
KENOSHA CLOUDY 36 33 89 NE6 30.15F WCI 31  
FOND DU LAC FAIR 34 31 88 SE6 30.15R WCI 29  
SHEBOYGAN CLOUDY 37 32 82 CALM 30.16S  
WEST BEND CLOUDY 32 32 100 E3 30.15S FOG  
JUNEAU FAIR 34 32 93 CALM 30.15S  

 
 
LSZ147-162-050500-  
LAKE SUPERIOR  
 
STATION/POSITION TIME TEMP WIND PRES WAVE
 
AIR SEA DIR/SP/G HT/PER  
(UTC) (F) (DEG/KT/KT) (MB) (FT/S)  
DEVILS ISLAND 0400 33 200/ 3/ 3 1022.7R  
SAXON HARBOR 0340 27 200/ 5/ 6 1021.7R  

 
 
LMZ867-665-643>646-050500-  
LAKE MICHIGAN  
 
STATION/POSITION TIME TEMP WIND PRES WAVE
 
AIR SEA DIR/SP/G HT/PER  
(UTC) (F) (DEG/KT/KT) (MB) (FT/S)  
NORTHPORT PIER 0340 33 80/ 5/ 6 1021.7R  
KEWAUNEE LAKESHO 0348 35 110/ 2/ 6 1021.1S  
SHEBOYGAN LAKESH 0400 35 60/ 2/ 3 N/A  
PORT WASHINGTON 0340 36 90/ 2/ 5 1022.7R  
MILWAUKEE LAKESH 0320 36 100/ 3/ 4 N/A  
KENOSHA LAKESH 0400 36 50/ 4/ 6 1021.0  

 
 
TC - TEMPERATURE IN CELSIUS  
VSB - VISIBILITY IN STATUTE MILES  
WCI - WIND CHILL INDEX  
HX - HEAT INDEX  
 
 
 
CLICK HERE TO GO TO PREVIOUS BULLETINS.

The Nexlab WI Page Main Text Page